Vorticity
2 2 2 1 4 3 5 2 7 8 7 4 6 7 5 12 9 15 9 7 6 11 13 8 10 7 6 3 5 4 8 4 2 2 3 3 5 8 5 6 4 8 8
-2 2 2 5 5 4 3 2 2 3 6 6 9 6 4 4 6 16 7 14 9 7 8 9 9 8 11 9 6 3 9 5 2 1 4 9 7 14 3 1 5 7 9
2 -0 3 -0 3 6 2 0 2 5 1 -0 -2 2 5 8 15 3 7 16 9 12 8 7 7 11 6 8 10 3 7 7 0 -0 -0 5 7 6 3 6 3 7 9
3 1 -0 -0 4 1 5 4 2 3 3 0 -0 1 2 5 4 5 9 3 8 16 15 10 6 5 6 8 8 9 7 9 1 -1 -0 3 9 6 5 6 2 3 10
5 2 -2 -3 -1 6 6 6 6 1 3 4 4 5 3 1 10 6 4 -2 4 9 5 20 20 14 6 10 6 10 9 10 6 1 -0 -0 3 3 7 2 2 2 4
2 2 2 1 1 3 5 8 9 7 2 2 2 2 2 0 -3 0 12 5 5 -3 -8 -1 0 9 23 16 9 8 10 8 9 6 2 1 -1 4 4 6 5 3 3
2 2 -0 -1 2 5 5 6 4 6 4 4 1 1 4 1 0 3 -3 8 7 1 -2 0 4 0 5 17 21 11 8 10 10 8 6 2 -2 0 3 3 6 5 4
1 -4 -4 0 3 3 2 5 6 2 0 1 1 1 1 0 3 0 -1 4 7 4 3 3 1 3 5 -2 10 17 18 10 0 19 10 8 4 -0 0 2 4 4 3
-2 -1 -1 1 4 4 2 5 8 6 4 3 2 1 -0 -0 2 1 1 4 3 4 5 2 5 7 1 3 2 1 5 0 23 14 38 2 8 3 1 2 4 3 4
-2 -2 3 6 3 2 6 5 6 7 7 6 4 2 1 4 3 3 3 4 3 3 2 3 2 1 9 1 4 1 2 -2 8 16 42 37 -8 9 2 2 3 4 3
-3 2 4 1 3 4 4 5 6 8 8 8 7 7 8 8 7 6 6 4 3 3 3 2 3 3 1 9 3 5 4 0 4 10 -2 -4 28 0 3 3 2 6 4
-0 2 1 2 4 3 6 7 5 6 9 10 11 12 10 5 5 6 7 6 4 3 3 3 3 2 3 4 9 4 3 5 1 5 11 20 -3 24 -0 6 3 4 6
3 2 2 4 3 6 6 7 3 9 10 9 6 3 3 5 5 5 4 5 6 5 4 4 4 3 3 3 8 9 4 5 5 7 4 13 11 58 -4 3 4 4 5
3 1 5 4 5 5 5 5 6 12 11 7 4 6 3 2 1 -0 2 4 6 6 6 6 6 5 5 5 6 5 3 4 8 5 6 4 7 18 71 2 8 5 5
1 3 6 5 6 6 6 7 8 13 9 5 2 6 2 -0 1 2 6 9 10 10 9 9 9 9 8 8 8 4 4 5 5 3 4 -5 1 2 2 43 4 8 6
3 5 6 7 7 7 6 9 11 14 7 -0 3 3 4 4 4 7 8 6 9 10 8 7 6 5 5 5 3 3 -0 5 6 7 4 -1 -2 2 9 64 6 6 8
4 6 7 6 6 6 6 10 12 10 3 1 3 4 3 4 9 9 13 11 10 10 10 6 6 7 10 10 9 9 11 5 4 1 6 7 4 -6 5 7 -1 38 7
5 8 6 6 6 5 5 10 12 9 3 2 4 3 2 11 11 10 3 6 4 6 2 3 6 8 5 5 3 6 6 8 6 5 11 5 5 3 0 5 -1 26 11
6 5 5 8 6 4 6 13 10 5 2 3 2 2 9 9 9 7 9 8 5 2 3 0 1 -1 6 8 9 5 3 5 2 4 3 5 5 8 2 2 3 4 64
5 3 7 8 5 4 11 12 7 2 3 2 4 5 7 6 6 6 4 4 4 7 6 10 5 9 4 -0 4 8 1 0 10 1 1 4 1 10 6 2 13 10 44
6 4 7 6 8 4 13 9 5 2 2 2 4 7 5 6 7 8 5 6 8 9 4 5 6 3 6 3 2 -2 -1 -2 5 5 8 2 3 6 10 7 1 -1 -2
5 6 8 7 4 10 10 6 3 3 3 6 4 9 2 7 9 5 6 6 6 2 3 1 -0 -0 0 -2 3 2 8 12 9 2 7 10 4 9 7 8 -0 2 -4
7 10 6 8 7 11 7 4 4 6 6 2 12 6 5 8 6 5 5 5 6 7 3 1 1 2 4 9 7 9 11 8 9 5 2 4 8 8 5 13 4 4 5
8 8 9 6 9 6 6 5 7 5 1 6 11 4 4 6 6 6 6 7 7 3 -1 3 1 10 3 29 48 52 54 65 48 7 11 8 10 7 11 11 4 2 5
12 10 6 7 6 5 6 9 7 4 -2 12 5 1 6 7 7 8 8 8 4 -1 3 2 7 34 44 34 28 27 31 31 29 51 61 7 13 5 16 10 3 3 2
10 6 7 7 8 11 10 6 2 6 10 6 1 5 9 6 8 6 6 1 -2 1 8 17 36 28 26 33 34 33 36 35 32 33 37 58 32 15 11 2 3 3 1
Height
5920 5919 5918 5917 5916 5915 5914 5913 5911 5910 5909 5908 5907 5905 5904 5902 5900 5898 5897 5896 5894 5893 5892 5892 5893 5894 5894 5894 5894 5893 5893 5893 5893 5893 5892 5892 5891 5890 5891 5891 5891 5891 5891
5921 5921 5919 5918 5917 5916 5915 5914 5912 5911 5910 5909 5907 5906 5904 5903 5901 5899 5897 5895 5894 5894 5892 5893 5893 5893 5894 5894 5894 5893 5892 5892 5891 5891 5891 5891 5890 5890 5890 5890 5890 5889 5890
5921 5921 5920 5919 5918 5917 5915 5914 5913 5912 5911 5910 5908 5906 5905 5902 5901 5900 5898 5896 5895 5894 5893 5892 5892 5893 5893 5893 5893 5893 5892 5891 5890 5890 5890 5890 5889 5889 5889 5888 5888 5888 5888
5921 5921 5920 5919 5918 5918 5916 5915 5913 5912 5912 5910 5908 5906 5905 5903 5902 5900 5898 5896 5894 5893 5892 5891 5891 5891 5891 5891 5891 5891 5891 5890 5890 5889 5889 5889 5888 5888 5887 5887 5887 5887 5887
5921 5921 5920 5920 5919 5918 5917 5915 5914 5912 5911 5910 5908 5907 5905 5903 5901 5900 5899 5897 5894 5893 5891 5890 5889 5889 5888 5888 5888 5888 5888 5889 5888 5888 5888 5888 5888 5887 5887 5886 5886 5886 5885
5922 5921 5920 5919 5918 5917 5917 5915 5913 5912 5911 5909 5908 5906 5904 5902 5901 5899 5898 5896 5895 5893 5891 5890 5889 5887 5886 5885 5885 5885 5886 5887 5887 5886 5887 5886 5886 5884 5885 5885 5885 5885 5884
5921 5920 5919 5919 5917 5916 5915 5914 5912 5911 5910 5908 5906 5905 5903 5901 5899 5898 5897 5895 5894 5892 5889 5888 5887 5886 5885 5883 5882 5882 5883 5883 5883 5883 5883 5883 5883 5882 5882 5882 5882 5883 5884
5920 5920 5919 5918 5917 5915 5914 5912 5910 5909 5908 5906 5904 5903 5901 5899 5897 5895 5894 5893 5892 5889 5887 5886 5884 5883 5882 5882 5880 5878 5878 5878 5877 5877 5876 5877 5875 5877 5879 5879 5880 5881 5882
5918 5918 5917 5916 5915 5913 5912 5911 5909 5907 5905 5903 5902 5900 5898 5896 5894 5892 5891 5890 5889 5887 5885 5883 5881 5881 5879 5879 5877 5875 5873 5873 5871 5869 5868 5869 5869 5871 5874 5875 5877 5878 5879
5917 5916 5915 5915 5913 5911 5910 5908 5906 5904 5902 5900 5898 5896 5894 5893 5890 5890 5888 5886 5885 5883 5881 5879 5878 5877 5876 5875 5874 5872 5869 5868 5865 5863 5860 5862 5862 5863 5868 5870 5873 5875 5876
5915 5914 5912 5911 5910 5909 5907 5904 5902 5900 5898 5895 5893 5891 5889 5888 5887 5885 5883 5882 5880 5878 5877 5875 5873 5872 5871 5871 5869 5868 5865 5864 5861 5857 5855 5850 5851 5855 5861 5864 5867 5870 5872
5912 5910 5909 5908 5906 5904 5903 5900 5898 5896 5893 5891 5888 5886 5885 5883 5882 5880 5879 5877 5875 5873 5871 5870 5867 5865 5864 5864 5864 5862 5860 5859 5857 5853 5850 5847 5846 5849 5854 5859 5861 5864 5868
5908 5907 5906 5904 5902 5900 5897 5895 5893 5890 5888 5886 5884 5882 5880 5879 5877 5875 5873 5871 5869 5868 5866 5863 5861 5860 5858 5856 5857 5857 5855 5854 5853 5850 5849 5847 5844 5846 5850 5854 5855 5859 5862
5905 5904 5902 5900 5898 5895 5892 5890 5888 5885 5883 5881 5879 5877 5875 5874 5872 5869 5867 5865 5862 5860 5858 5856 5855 5853 5851 5851 5848 5850 5849 5848 5849 5848 5846 5842 5840 5842 5846 5848 5851 5854 5858
5901 5899 5897 5894 5892 5889 5887 5884 5882 5879 5877 5875 5873 5871 5869 5867 5865 5862 5859 5857 5854 5852 5850 5848 5846 5845 5843 5842 5842 5840 5841 5841 5841 5842 5843 5842 5839 5838 5840 5844 5847 5849 5851
5896 5894 5891 5888 5885 5883 5881 5878 5876 5873 5871 5869 5867 5865 5863 5861 5857 5854 5851 5847 5845 5843 5841 5839 5838 5836 5834 5833 5832 5833 5832 5832 5832 5834 5835 5838 5837 5834 5835 5836 5840 5842 5845
5891 5888 5885 5882 5879 5876 5873 5871 5869 5867 5865 5862 5860 5858 5855 5852 5848 5845 5842 5840 5837 5833 5831 5829 5826 5825 5824 5823 5822 5820 5822 5822 5822 5823 5825 5828 5829 5828 5827 5830 5834 5836 5837
5885 5882 5878 5875 5872 5869 5866 5863 5861 5860 5857 5854 5851 5849 5846 5842 5838 5835 5833 5829 5827 5825 5822 5820 5817 5814 5810 5808 5809 5809 5807 5809 5811 5810 5814 5816 5820 5821 5819 5820 5823 5824 5828
5878 5875 5872 5868 5865 5862 5859 5856 5853 5851 5849 5845 5842 5839 5835 5832 5828 5825 5821 5817 5815 5812 5809 5806 5803 5800 5798 5795 5791 5790 5791 5792 5794 5798 5799 5802 5807 5810 5811 5811 5812 5815 5819
5870 5866 5864 5861 5857 5854 5851 5848 5845 5842 5839 5836 5833 5829 5825 5821 5817 5812 5809 5805 5801 5797 5793 5789 5785 5781 5777 5776 5774 5774 5772 5773 5776 5781 5782 5784 5790 5797 5800 5802 5803 5805 5811
5861 5859 5855 5852 5849 5847 5842 5839 5836 5833 5830 5827 5823 5819 5815 5810 5804 5800 5795 5791 5785 5780 5775 5770 5765 5761 5757 5752 5749 5748 5750 5751 5750 5754 5761 5764 5771 5779 5785 5792 5795 5795 5801
5854 5850 5846 5843 5840 5837 5834 5830 5827 5823 5820 5817 5813 5809 5804 5797 5792 5786 5780 5774 5768 5761 5755 5749 5744 5739 5733 5724 5717 5711 5714 5722 5720 5720 5730 5740 5749 5757 5767 5774 5782 5786 5791
5845 5842 5837 5834 5832 5829 5825 5822 5818 5814 5810 5806 5801 5796 5790 5784 5777 5771 5763 5755 5748 5741 5734 5726 5718 5708 5700 5692 5680 5664 5664 5671 5678 5688 5695 5709 5722 5734 5746 5756 5765 5774 5779
5836 5833 5829 5826 5823 5820 5817 5813 5809 5805 5800 5795 5789 5783 5776 5769 5761 5753 5745 5737 5729 5720 5711 5699 5686 5671 5657 5646 5638 5621 5608 5611 5623 5644 5655 5674 5689 5705 5724 5737 5748 5758 5766
5827 5824 5820 5816 5813 5810 5807 5804 5800 5795 5790 5784 5777 5770 5762 5754 5745 5736 5728 5719 5710 5697 5682 5669 5654 5636 5616 5600 5594 5586 5579 5574 5576 5587 5613 5632 5651 5678 5698 5715 5729 5740 5752
5818 5814 5810 5807 5804 5801 5798 5793 5789 5785 5779 5772 5764 5756 5747 5739 5729 5720 5710 5700 5687 5672 5654 5636 5617 5600 5584 5569 5560 5554 5548 5549 5547 5557 5571 5595 5615 5643 5667 5685 5704 5719 5736